EX-ALTA-2 (56313 NORAD) Tracking and Keplerian Element Data

This shows tracking and keplerian element data for the satellite.

Feedback or suggestion? Click here.




ElementValue
Catalog56313
NameEX-ALTA-2
Epoch Orbit195
Epoch Day126.85050137
Epoch Year2023
RAAN173.2631
Inclination51.6376
Eccentricity0.0007847
Argument of Perigee317.5885
Mean Anonmoly42.4498
Mean Motion15.5232722
Decay Rate0.00063422
L11 56313U 98067VE 23126.85050137 .00063422 00000+0 10210-2 0 9993
L22 56313 51.6376 173.2631 0007847 317.5885 42.4498 15.52327220 1959



Live tracking and technical data element details for EX-ALTA-2 (NORAD 56313). EX-ALTA-2 can be tracked NOW for your location showing map with azimuth and elevation plus other details from your city location.







IsCatalogInMostPopularTable: catalog: 56313, numindb: 3
Update: records affected: 1



GetName: 56313 EX-ALTA-2

Hit Count: updated at: Wed, 07 Jun 2023 08:58:56 GMT